TimeCST,TemperatureF,Dew PointF,Humidity,Sea Level PressureIn,VisibilityMPH,Wind Direction,Wind SpeedMPH,Gust SpeedMPH,PrecipitationIn,Events,Conditions,WindDirDegrees,DateUTC
12:53 AM,28.9,21.9,75,29.99,8.0,NNW,15.0,21.9,N/A,,Overcast,330,2012-12-28 06:53:00
1:53 AM,28.0,21.9,78,30.01,8.0,NNW,18.4,29.9,N/A,,Overcast,330,2012-12-28 07:53:00
2:53 AM,28.0,21.0,75,30.01,8.0,NNW,13.8,29.9,N/A,,Overcast,330,2012-12-28 08:53:00
3:53 AM,28.0,19.9,72,30.02,8.0,NNW,13.8,29.9,N/A,,Overcast,330,2012-12-28 09:53:00
4:53 AM,26.6,19.4,74,30.00,8.0,NW,17.3,25.3,N/A,,Overcast,320,2012-12-28 10:53:00
5:53 AM,27.0,19.0,72,30.03,8.0,NNW,11.5,27.6,N/A,,Overcast,330,2012-12-28 11:53:00
6:53 AM,27.0,19.0,72,30.02,8.0,North,15.0,-,N/A,,Overcast,350,2012-12-28 12:53:00
7:53 AM,26.1,19.0,75,30.03,10.0,NNW,12.7,29.9,N/A,,Overcast,340,2012-12-28 13:53:00
8:53 AM,26.1,17.1,69,30.05,10.0,NNW,26.5,32.2,N/A,,Overcast,330,2012-12-28 14:53:00
9:53 AM,26.1,15.1,63,30.09,10.0,NW,19.6,31.1,N/A,,Overcast,320,2012-12-28 15:53:00
10:20 AM,24.8,12.2,59,30.05,10.0,NW,24.2,31.1,N/A,,Overcast,320,2012-12-28 16:20:00
10:53 AM,28.0,14.0,56,30.10,10.0,NNW,16.1,33.4,N/A,,Mostly Cloudy,340,2012-12-28 16:53:00
11:53 AM,27.0,14.0,58,30.09,10.0,North,11.5,33.4,N/A,,Mostly Cloudy,350,2012-12-28 17:53:00
12:53 PM,30.0,12.9,49,30.06,10.0,North,12.7,32.2,N/A,,Scattered Clouds,350,2012-12-28 18:53:00
1:53 PM,30.0,10.9,45,30.04,10.0,NNW,21.9,33.4,N/A,,Scattered Clouds,330,2012-12-28 19:53:00
2:53 PM,30.9,9.0,40,30.05,10.0,NNW,18.4,23.0,N/A,,Partly Cloudy,330,2012-12-28 20:53:00
3:53 PM,28.9,9.0,43,30.07,10.0,NW,17.3,-,N/A,,Partly Cloudy,320,2012-12-28 21:53:00
4:53 PM,27.0,10.0,49,30.10,10.0,NNW,16.1,-,N/A,,Partly Cloudy,330,2012-12-28 22:53:00
5:53 PM,25.0,10.0,53,30.11,10.0,NNW,11.5,-,N/A,,Partly Cloudy,330,2012-12-28 23:53:00
6:53 PM,24.1,10.9,57,30.13,10.0,NNW,13.8,-,N/A,,Clear,330,2012-12-29 00:53:00
7:53 PM,19.9,10.0,65,30.16,10.0,NW,8.1,-,N/A,,Clear,320,2012-12-29 01:53:00
8:53 PM,19.9,10.9,68,30.17,10.0,NNW,11.5,-,N/A,,Partly Cloudy,330,2012-12-29 02:53:00
9:53 PM,19.0,10.0,68,30.19,10.0,NNW,11.5,-,N/A,,Partly Cloudy,340,2012-12-29 03:53:00
10:53 PM,18.0,10.0,71,30.20,10.0,NNW,11.5,-,N/A,,Partly Cloudy,340,2012-12-29 04:53:00
11:53 PM,17.1,10.0,74,30.22,10.0,NNW,8.1,-,N/A,,Clear,330,2012-12-29 05:53:00